星链-37466(STARLINK-37466)

导读

STARLINK-37466(NORAD编号69038)是美国SpaceX公司星链(Starlink)卫星互联网星座中的一颗低轨卫星,属于星链大规模组网部署的组成部分。星链项目旨在通过近地轨道卫星星座为全球提供高速低延迟互联网服务,重点覆盖地面网络难以抵达的偏远区域、海洋及空中航线。该卫星运行于近地轨道,倾角约97.6度,轨道高度在550公里左右,每日绕地球约15圈,目前处于在轨运行状态,参与星座组网,为全球用户提供宽带互联接入服务,和其他星链卫星共同推进SpaceX全球卫星互联网布局。

基本信息
目录编号:
69038
目录名称:
STARLINK-37466
国际标识:
2026-101P
轨道中心:
EARTH
卫星名称:
星链-37466
卫星全名:
星链-37466(STARLINK-37466)
卫星状态:
在轨 (已飞行83 天)
发射日期:
2026-05-06 UTC
国别 :
美国 (US)
星等 :
--
轨道信息
数据来源 国际轨道数据 AOE轨道数据
星历时间 2026-07-27T11:46:14+0800
20小时前
查看轨道信息
2026-07-27T00:00:00+0800
1天前
查看轨道信息
半长轴 6843.676km 6843.715km
偏心率 0.0002138 0.0001802
轨道倾角 97.284° 97.285°
近地点辐角 85.211° 88.417°
升交点赤经 62.515° 62.033°
平近点角 274.937° 86.084°
近地点 464.075km 464.344km
远地点 467.003km 466.812km
周期 93.906分钟 93.907分钟
每日圈数 15.334466 15.334334
详细信息
固有亮度:
5
最大亮度:
2.5
卫星平台:
Starlink V1.0
覆盖范围:
全球
运营商:
太空探索技术公司
运营商所在国:
美国
制造商(研发单位):
太空探索技术公司
制造商所在国:
美国
使用方式:
暂无
卫星简介
Starlink 计划是 SpaceX 推出的全球卫星互联网项目,通过发射低轨道卫星,为全球尤其是偏远地区提供高速、低延迟的互联网服务。自 2019 年起,Starlink 已部署数千颗卫星,旨在缩小全球数字鸿沟,推动互联网普及。该项目还为军事、航空等行业提供通信支持,带来广泛经济效益。
2D轨道图
3D轨道图
轨道高度分析图
轨道倾角分析图
轨道综合分析图
查看轨道综合分析图